Location: La Chapelle
(46.1008°N, 1.8397°E)
Time: 01:43:16
(UTC+00:00)

Daily predictions for brighter satellites

Satellite Brightness Start Highest point End
(mag) Time Altitude Azimuth Time Altitude Azimuth Time Altitude Azimuth
USA 215 4.3 02:50:02 10° NE 02:54:03 41° NE 02:54:03 41° NE
Cosmos 2237 Rocket 4.0 03:19:53 23° NNE 03:19:53 23° NNE 03:21:58 10° NNE
NOSS 3-1 (A) 4.3 03:19:35 64° SE 03:19:35 64° SE 03:26:45 10° SE
CZ-4C R/B 3.8 03:21:53 29° NNE 03:21:53 29° NNE 03:25:10 10° NNE
Cosmos 2219 Rocket 4.4 03:26:42 15° N 03:26:42 15° N 03:27:58 10° N
USA 267 4.4 03:23:39 10° SE 03:26:50 31° SE 03:26:50 31° SE
Cosmos 1943 Rocket 3.2 03:37:56 39° NNE 03:38:49 42° NE 03:44:02 10° SE
Lacrosse 5 3.1 03:45:19 38° E 03:45:19 38° E 03:48:33 10° ESE
ATLAS CENTAUR R/B 3.5 03:52:19 24° NNE 03:52:19 24° NNE 03:54:06 10° NNE
PAYLOAD A 4.4 03:54:37 10° NNE 03:58:45 57° NE 03:58:45 57° NE
SL-16 R/B 2.6 04:01:35 55° N 04:01:35 55° N 04:06:05 10° NNE
MSX 3.9 03:55:18 10° NNE 04:00:17 68° N 04:00:17 68° N
CZ-2C R/B 2.9 03:56:05 10° NNE 04:01:13 58° E 04:01:40 56° SE
Cosmos 2251 Rocket 4.1 04:03:08 50° NNE 04:03:08 50° NNE 04:07:02 10° NNE
IDEFIX/ARIANE 42P 4.0 04:03:05 10° N 04:05:34 27° N 04:05:34 27° N
BREEZE-M DEB (TANK) 3.2 04:09:15 68° N 04:09:20 68° NNE 04:19:43 10° E
Cosmos 2369 Rocket 2.7 04:06:41 18° NNW 04:11:00 59° ENE 04:16:37 10° SE
H-2A R/B 3.9 04:08:14 10° NNE 04:12:24 40° E 04:15:05 20° SSE
Cosmos 1339 Rocket 4.3 04:15:29 43° S 04:17:38 90° ENE 04:23:48 10° N
Cosmos 1943 4.4 04:15:52 10° S 04:21:01 39° ESE 04:26:12 10° NE
Aureole 2 Rocket 4.4 04:25:19 23° ESE 04:25:19 23° ESE 04:26:58 10° SE
Cosmos 1743 Rocket 3.9 04:22:54 10° N 04:27:12 64° E 04:31:30 10° SSE
Cosmos 2333 Rocket 4.5 04:37:44 10° NNW 04:37:44 10° NNW 04:38:01 10° NNW
USA 215 4.0 04:33:09 10° NE 04:39:10 41° NNW 04:41:24 31° NW
ADEOS 3.7 04:34:53 10° N 04:39:45 50° WNW 04:39:45 50° WNW
Cosmos 407 Rocket 4.0 04:35:15 11° S 04:40:18 62° ESE 04:45:31 10° NNE
Cosmos 1842 Rocket 3.4 04:40:30 61° SSW 04:41:14 81° W 04:45:45 10° N
Meteor 2-3 Rocket 3.6 04:35:53 10° NNW 04:41:38 75° W 04:47:25 10° S
Cosmos 1459 Rocket 4.4 04:39:33 10° N 04:45:41 62° ENE 04:51:53 10° SSE
BREEZE M DEB (TANK) 3.1 04:45:29 50° NNW 04:45:49 52° N 04:51:56 10° E
Cosmos 921 Rocket 3.5 04:41:54 10° NNW 04:46:20 62° ENE 04:50:37 10° SSE
GEOS 3 Rocket 3.9 04:41:32 10° NE 04:46:50 69° SE 04:50:29 21° SSW
Cosmos 1484 Rocket 3.2 04:43:47 10° NNE 04:47:44 65° E 04:51:42 10° S
BREEZE M DEB (TANK) 4.3 04:44:01 23° WNW 04:51:30 46° SW 04:55:55 10° SSE
STARLINK-1070 3.3 04:54:20 55° E 04:54:20 55° E 04:56:50 10° ENE
STARLINK-1124 3.3 04:54:41 55° ENE 04:54:41 55° ENE 04:57:05 10° ENE
STARLINK-1066 3.3 04:54:55 56° E 04:54:55 56° E 04:57:24 10° ENE
STARLINK-1081 3.3 04:55:08 56° E 04:55:08 56° E 04:57:38 10° ENE
STARLINK-1069 3.2 04:55:34 57° E 04:55:34 57° E 04:58:06 10° ENE
STARLINK-1085 3.2 04:55:46 58° E 04:55:46 58° E 04:58:19 10° ENE
STARLINK-1086 3.2 04:56:03 59° E 04:56:03 59° E 04:58:35 10° ENE
STARLINK-1095 3.2 04:56:13 59° E 04:56:13 59° E 04:58:46 10° ENE
STARLINK-1077 3.2 04:56:24 59° E 04:56:24 59° E 04:58:57 10° ENE
STARLINK-1075 3.2 04:56:39 60° E 04:56:39 60° E 04:59:13 10° ENE
STARLINK-1093 3.1 04:56:52 61° E 04:56:52 61° E 04:59:26 10° ENE
STARLINK-1104 4.4 04:55:03 29° SSW 04:56:41 46° SE 05:00:36 10° ENE
STARLINK-1074 3.1 04:57:06 61° E 04:57:06 61° E 04:59:42 10° ENE
STARLINK-1087 3.1 04:57:18 62° E 04:57:18 62° E 04:59:54 10° ENE
Meteor 2-10 Rocket 4.4 04:58:01 29° NW 04:58:01 29° NW 05:01:42 10° N
STARLINK-1088 3.1 04:57:29 62° E 04:57:29 62° E 05:00:04 10° ENE
STARLINK-1115 3.1 04:57:44 63° E 04:57:44 63° E 05:00:21 10° ENE
STARLINK-1076 3.0 04:57:57 63° E 04:57:57 63° E 05:00:35 10° ENE
STARLINK-1092 3.0 04:58:10 64° E 04:58:10 64° E 05:00:47 10° ENE
STARLINK-1080 3.0 04:58:22 65° E 04:58:22 65° E 05:01:00 10° ENE
STARLINK-1090 3.0 04:58:36 65° E 04:58:36 65° E 05:01:15 10° ENE
STARLINK-1089 3.0 04:58:51 66° E 04:58:51 66° E 05:01:31 10° ENE
Cosmos 2221 2.3 04:56:38 29° SSW 04:58:44 68° W 05:03:02 10° N
STARLINK-1107 3.0 04:59:03 66° E 04:59:03 66° E 05:01:42 10° ENE
STARLINK-1109 2.9 04:59:15 67° E 04:59:15 67° E 05:01:55 10° ENE
STARLINK-1091 2.9 04:59:29 68° E 04:59:29 68° E 05:02:10 10° ENE
STARLINK-1072 2.9 04:59:39 68° E 04:59:39 68° E 05:02:21 10° ENE
Cosmos 614 Rocket 3.8 04:55:34 18° SSW 04:59:30 82° WNW 05:04:44 10° NNE
STARLINK-1096 2.9 04:59:53 68° E 04:59:53 68° E 05:02:34 10° ENE
COSMO-SKYMED 1 2.6 04:55:23 10° SSE 04:59:42 79° ENE 05:04:04 10° N
STARLINK-1079 2.9 05:00:06 69° E 05:00:06 69° E 05:02:49 10° ENE
STARLINK-1116 2.9 05:00:21 70° E 05:00:21 70° E 05:03:03 10° ENE
STARLINK-1094 2.8 05:00:46 71° E 05:00:46 71° E 05:03:30 10° ENE
STARLINK-1117 2.8 05:00:58 72° E 05:00:58 72° E 05:03:43 10° ENE
STARLINK-1078 2.8 05:01:12 73° ESE 05:01:12 73° ESE 05:03:58 10° ENE
STARLINK-1144 4.3 04:59:24 28° SSW 05:01:12 49° SE 05:05:09 10° ENE
STARLINK-1108 2.8 05:01:25 73° ESE 05:01:25 73° ESE 05:04:10 10° ENE
STARLINK-1071 2.8 05:01:37 73° E 05:01:37 73° E 05:04:22 10° ENE
Cosmos 2237 Rocket 4.0 05:01:42 14° NW 05:01:42 14° NW 05:04:36 10° N
STARLINK-1110 2.8 05:01:52 75° ESE 05:01:52 75° ESE 05:04:39 10° ENE
STARLINK-1122 2.7 05:02:15 76° ESE 05:02:15 76° ESE 05:05:03 10° ENE
STARLINK-1126 2.7 05:02:29 76° ESE 05:02:29 76° ESE 05:05:17 10° ENE
STARLINK-1082 2.7 05:02:43 77° ESE 05:02:43 77° ESE 05:05:32 10° ENE
STARLINK-1100 2.7 05:02:56 78° ESE 05:02:56 78° ESE 05:05:45 10° ENE
STARLINK-1083 2.7 05:03:08 79° ESE 05:03:08 79° ESE 05:05:58 10° ENE
STARLINK-1125 2.7 05:03:21 79° ESE 05:03:21 79° ESE 05:06:11 10° ENE
Cosmos 1190 Rocket 4.0 05:00:01 10° SSW 05:05:18 85° ESE 05:10:39 10° NNE
STARLINK-1128 4.1 05:04:01 28° SSW 05:05:53 55° SE 05:09:50 10° ENE
STARLINK-1103 4.1 05:04:22 27° SSW 05:06:21 54° SE 05:10:21 10° ENE
PSLV R/B 3.9 05:04:27 10° NNE 05:08:12 71° ESE 05:11:59 10° S
CZ-4C R/B 3.9 05:07:04 16° NW 05:09:21 20° NNW 05:14:00 10° NNE
STARLINK-1113 4.0 05:08:39 26° SW 05:10:43 59° SE 05:14:43 10° ENE
STARLINK-1101 4.0 05:09:02 25° SW 05:11:12 59° SE 05:15:14 10° ENE
Meteor 1-27 4.2 05:05:56 10° SSW 05:11:24 57° WNW 05:16:54 10° N
Cosmos 1238 Rocket 4.0 05:05:34 10° N 05:11:42 70° E 05:16:47 10° SSE
Cosmos 1802 Rocket 4.2 05:05:15 10° N 05:11:44 80° E 05:18:09 10° S
USA 267 4.4 05:09:15 10° S 05:13:55 21° WSW 05:14:14 20° WSW
BREEZE-M DEB (TANK) 4.4 05:08:23 10° SW 05:14:17 33° SSE 05:16:56 10° E
STARLINK-1119 3.9 05:13:13 25° SW 05:15:27 64° SE 05:19:29 10° ENE
STARLINK-1179 4.4 05:15:26 20° N 05:15:58 21° NNE 05:18:07 10° ENE
STARLINK-1102 3.9 05:13:42 24° SW 05:16:03 63° SE 05:20:07 10° ENE
Meteor 1-31 Rocket 3.2 05:12:41 10° N 05:16:13 37° WNW 05:16:45 35° W
Cosmos 1238 4.0 05:14:46 23° SSW 05:16:27 66° W 05:19:36 10° N
STARLINK-1176 4.4 05:15:59 20° N 05:16:33 22° NNE 05:18:44 10° ENE
STARLINK-1114 3.8 05:17:35 23° SW 05:20:01 69° SE 05:24:03 10° ENE
STARLINK-1111 3.8 05:18:24 22° SW 05:20:55 69° SE 05:25:01 10° ENE
Meteor 2-2 Rocket 4.3 05:16:19 10° SSW 05:22:20 71° WNW 05:28:23 10° N
Cosmos 1943 Rocket 2.8 05:19:34 20° WNW 05:22:25 32° WSW 05:27:13 10° SSW
CZ-4B R/B 3.1 05:19:30 10° N 05:22:57 38° WNW 05:24:17 27° WSW
Cosmos 676 Rocket 4.3 05:17:45 10° SSW 05:23:02 74° ESE 05:28:24 10° NNE
STARLINK-1130 (DARKSAT) 3.7 05:21:45 22° SW 05:24:19 74° SE 05:28:22 10° ENE
STARLINK-1073 3.7 05:23:00 20° SW 05:25:44 74° SE 05:29:50 10° ENE
Lacrosse 5 2.7 05:24:33 24° W 05:26:15 30° SW 05:30:39 10° S
ATLAS CENTAUR R/B 3.4 05:28:31 14° NW 05:29:23 15° NNW 05:31:54 10° N
STARLINK-1084 3.6 05:26:37 19° SW 05:29:24 79° SSE 05:33:28 10° ENE
STARLINK-1121 3.6 05:27:43 19° SW 05:30:37 80° SE 05:34:44 10° ENE
ALOS 2.2 05:29:44 10° N 05:34:22 63° WNW 05:38:59 10° SSW
Cosmos 2016 Rocket 4.0 05:28:32 10° N 05:34:48 83° W 05:41:07 10° S
STARLINK-1106 3.6 05:32:31 17° SW 05:35:38 85° SSE 05:39:45 10° ENE
CZ-2C R/B 3.7 05:35:07 10° NNW 05:38:59 22° WNW 05:41:04 17° W
STARLINK-1112 3.5 05:37:13 15° WSW 05:40:31 89° NNW 05:44:39 10° ENE
Cosmos 1869 3.9 05:37:21 10° SW 05:41:01 34° WNW 05:44:39 10° N
Cosmos 1400 Rocket 2.9 05:37:01 10° S 05:41:02 81° E 05:45:08 10° NNE
ISS -0.4 05:42:54 10° SE 05:43:35 10° SE 05:44:18 10° ESE
STARLINK-1118 3.0 05:42:59 26° WNW 05:43:55 37° NNW 05:46:18 10° NE
FENGYUN 3A 3.7 05:38:53 10° N 05:44:15 60° WNW 05:49:35 10° SSW
NOAA 6 4.2 05:39:25 10° NNE 05:44:38 81° ESE 05:49:48 10° SSW
ATLAS 2AS CENTAUR R/B 3.8 05:37:19 10° NNW 05:44:40 45° NE 05:51:28 10° ESE
Cosmos 1633 3.1 05:41:25 10° NNW 05:44:45 35° W 05:48:05 10° SSW
Sich 1 3.0 05:40:40 10° NNW 05:44:55 63° W 05:49:10 10° S
Cosmos 1805 Rocket 3.8 05:40:56 10° NNW 05:45:05 45° W 05:49:12 10° SSW
SL-16 R/B 3.8 05:43:29 14° WNW 05:45:32 16° NW 05:49:02 10° N
ADEOS Rocket 3.3 05:40:53 10° SSE 05:47:10 86° ENE 05:54:15 10° NNW
H-2A R/B 3.7 05:44:08 10° NNW 05:47:40 24° WNW 05:51:15 10° WSW
SKYMED 2 4.2 05:44:00 10° SSW 05:47:55 33° W 05:51:51 10° NNW
Cosmos 2084 3.5 05:44:50 10° SW 05:49:19 69° NW 05:53:48 10° NE
STARLINK-1129 4.3 05:48:55 12° NW 05:51:38 33° NNE 05:54:39 10° E
Cosmos 2233 Rocket 4.4 05:45:42 10° N 05:51:59 72° E 05:58:17 10° SSE
TELKOM 3 3.7 05:50:43 18° NW 05:51:59 35° NNE 05:53:58 10° E
STARLINK-1134 4.3 05:51:01 11° NW 05:53:50 33° NNE 05:56:52 10° E
Cosmos 2369 Rocket 3.3 05:50:08 10° NW 05:54:35 24° WSW 05:59:00 10° SSW
STARLINK-1135 4.2 05:53:26 11° NW 05:56:21 34° NNE 05:59:24 10° E
H-2A R/B 3.5 05:52:55 10° NNE 05:56:38 55° E 06:00:17 10° S
Aureole 2 Rocket 4.1 05:57:41 13° W 05:57:41 13° W 05:59:14 10° SW
STARLINK-1141 4.2 05:55:41 10° NW 05:58:42 35° NNE 06:01:46 10° E
STARLINK-1140 4.2 05:57:59 10° NW 06:01:05 36° NNE 06:04:09 10° E
Cosmos 1603 4.5 05:56:15 10° WSW 06:01:19 32° NW 06:06:23 10° N
STARLINK-1149 3.8 05:59:45 10° NW 06:02:21 35° NNE 06:04:55 10° E
Cosmos 1656 Rocket 4.1 05:57:49 10° NW 06:03:09 42° WSW 06:08:26 10° S
STARLINK-1156 4.1 06:00:19 10° NW 06:03:25 37° NNE 06:06:31 10° E
Cosmos 1943 3.8 05:59:55 10° WSW 06:05:05 37° NW 06:10:18 10° NNE
STARLINK-1148 4.1 06:02:41 10° NW 06:05:48 38° NNE 06:08:55 10° E
STARLINK-1153 3.9 06:03:31 10° NW 06:06:18 36° NNE 06:09:02 10° E
STARLINK-1180 3.9 06:03:44 10° NW 06:06:30 36° NNE 06:09:16 10° E
STARLINK-1174 3.9 06:04:12 10° NW 06:06:58 36° NNE 06:09:43 10° E
STARLINK-1139 3.9 06:04:26 10° NW 06:07:11 36° NNE 06:09:57 10° E
STARLINK-1133 3.9 06:04:39 10° NW 06:07:25 36° NNE 06:10:11 10° E
Okean O Rocket 1.6 06:03:11 10° N 06:07:32 64° WNW 06:11:49 10° SSW
STARLINK-1151 3.8 06:04:54 10° NW 06:07:40 37° NNE 06:10:25 10° E
STARLINK-1158 4.1 06:05:01 10° NW 06:08:09 39° NNE 06:11:17 10° E
STARLINK-1160 3.8 06:05:34 10° NW 06:08:20 37° NNE 06:11:06 10° E
STARLINK-1161 3.8 06:05:46 10° NW 06:08:32 37° NNE 06:11:18 10° E
CZ-4B DEB 4.4 06:03:24 10° N 06:08:40 49° WNW 06:13:54 10° SW
Shenzhou-11 Module 2.6 06:06:14 10° WSW 06:08:44 38° S 06:11:14 10° ESE
STARLINK-1145 3.8 06:06:01 10° NW 06:08:46 37° NNE 06:11:33 10° E
STARLINK-1172 3.8 06:06:12 10° NW 06:08:59 37° NNE 06:11:45 10° E
STARLINK-1182 3.8 06:06:40 10° NW 06:09:27 37° NNE 06:12:12 10° E
STARLINK-1164 3.8 06:06:54 10° NW 06:09:40 38° NNE 06:12:26 10° E
STARLINK-1168 3.8 06:07:06 10° NW 06:09:53 38° NNE 06:12:39 10° E
STARLINK-1183 3.8 06:07:48 10° NW 06:10:35 38° NNE 06:13:20 10° E
STARLINK-1181 3.8 06:08:00 10° NW 06:10:48 38° NNE 06:13:33 10° E
Cosmos 1151 Rocket 3.0 06:06:41 10° S 06:11:00 87° WNW 06:15:22 10° N
STARLINK-1196 3.8 06:08:41 10° NW 06:11:28 38° NNE 06:14:15 10° E
STARLINK-1186 3.8 06:09:08 10° NW 06:11:55 39° NNE 06:14:42 10° E
STARLINK-1185 3.8 06:09:21 10° NW 06:12:09 39° NNE 06:14:55 10° E
STARLINK-1175 3.7 06:09:35 10° NW 06:12:22 39° NNE 06:15:09 10° E
STARLINK-1147 3.7 06:09:48 10° NW 06:12:36 39° NNE 06:15:23 10° E
STARLINK-1132 3.6 06:09:56 10° NW 06:12:38 41° NNE 06:15:19 10° E
STARLINK-1146 3.7 06:10:01 10° NW 06:12:49 39° NNE 06:15:37 10° E
STARLINK-1152 3.7 06:10:17 10° NW 06:13:04 39° NNE 06:15:52 10° E
STARLINK-1195 3.7 06:10:29 10° NW 06:13:17 39° NNE 06:16:05 10° E
STARLINK-1137 3.7 06:10:43 10° NW 06:13:31 39° NNE 06:16:18 10° E
SMAP 3.5 06:09:00 10° NNE 06:13:40 69° ESE 06:18:19 10° S
STARLINK-1142 3.7 06:10:56 10° NW 06:13:44 40° NNE 06:16:31 10° E
STARLINK-1127 3.7 06:11:08 10° NW 06:13:56 40° NNE 06:16:44 10° E
STARLINK-1184 3.7 06:11:22 10° NW 06:14:10 40° NNE 06:16:58 10° E
STARLINK-1193 3.7 06:11:36 10° NW 06:14:24 40° NNE 06:17:11 10° E
STARLINK-1194 3.7 06:11:50 10° NW 06:14:38 40° NNE 06:17:26 10° E
STARLINK-1150 3.5 06:12:12 10° NW 06:14:55 42° NNE 06:17:36 10° E
CZ-4B R/B 3.1 06:09:57 10° N 06:15:15 66° WNW 06:20:28 10° SSW
STARLINK-1163 3.5 06:13:28 10° NW 06:16:11 43° NNE 06:18:52 10° E
STARLINK-1098 3.8 06:12:37 10° WSW 06:16:39 57° NNW 06:20:42 10° NE
STARLINK-1177 3.4 06:15:13 10° NW 06:17:56 44° NNE 06:20:37 10° E
STARLINK-1173 3.4 06:15:16 10° NW 06:18:00 44° NNE 06:20:42 10° E
STARLINK-1167 3.4 06:15:43 10° NW 06:18:27 45° NNE 06:21:10 10° E
Cosmos 1328 Rocket 3.6 06:14:32 10° SSW 06:18:57 71° W 06:23:25 10° N
Cosmos 1862 4.2 06:15:41 10° NNW 06:19:04 27° W 06:22:26 10° SSW
Helios 1A Rocket 2.9 06:16:33 10° N 06:20:42 67° WNW 06:24:46 10° SSW
Cosmos 1140 Rocket 4.4 06:16:17 10° WSW 06:20:50 29° WNW 06:25:24 10° N
STARLINK-1123 3.8 06:17:07 10° WSW 06:21:07 54° NNW 06:25:08 10° NE
USA 215 4.3 06:15:29 10° ENE 06:21:16 35° N 06:27:03 10° WNW
